"startDT [UTC]","vpos","CH4 [ppm]","stdev(CH4) [ppm]","CO2 [ppm]","stdev(CO2) [ppm]","H2O [ppm]","stdev(H2O)","p_LGR [torr]","T_LGR [C]","mt1_LGR [us]","mt2_LGR [us]","T_ECpre [C]","T_EC1 [C]","T_EC2 [C]","p_inlet [hPa]","p_in [hPa]","p_out [hPa]","T_inlet [C]","RH_inlet [%]","dwpt_inlet [C]","T_vent [C]","RH_vent [%]","dwpt_vent [C]","flow_vent [l min-1]","flow_inlet [l min-1]","dwpt_sample [C]","T_room [C]"
2013-05-12 00:00:00,0.0,1.9091,0.0009,406.81,0.48,408.0,30.2,138.04,31.35,24.66,36.44,0.04,-272.76,-272.76,-43,570,-939,25.1,10.6,-7.9,25.4,10.7,-7.6,5.73,2.37,-20.7,30.8
2013-05-12 00:01:00,0.0,1.9093,0.0010,406.87,0.50,410.3,28.2,138.04,31.35,24.66,36.44,0.04,-272.76,-272.76,-44,570,-939,25.1,10.6,-7.9,25.4,10.8,-7.5,5.73,2.41,-20.6,30.8
2013-05-12 00:02:00,0.0,1.9094,0.0009,406.76,0.43,402.0,31.5,138.04,31.35,24.66,36.44,0.04,-272.76,-272.76,-43,570,-938,25.1,10.7,-7.8,25.4,10.8,-7.4,5.73,2.30,-20.7,30.7
2013-05-12 00:03:00,0.0,1.9091,0.0011,406.84,0.46,409.2,28.9,138.04,31.36,24.66,36.44,0.04,-272.76,-272.76,-43,570,-938,25.1,10.8,-7.7,25.4,10.9,-7.3,5.73,2.38,-20.6,30.7
2013-05-12 00:04:00,0.0,1.9095,0.0010,406.84,0.35,409.4,28.4,138.04,31.36,24.66,36.44,0.04,-272.76,-272.76,-43,570,-939,25.2,10.8,-7.6,25.4,11.0,-7.2,5.73,2.41,-20.6,30.7
2013-05-12 00:05:00,0.0,1.9088,0.0010,406.76,0.41,405.5,32.2,138.04,31.36,24.67,36.44,0.04,-272.76,-272.76,-44,570,-939,25.2,10.8,-7.6,25.4,11.0,-7.2,5.73,2.30,-20.6,30.7
2013-05-12 00:06:00,0.0,1.9092,0.0009,406.79,0.46,410.3,32.8,138.04,31.37,24.66,36.44,0.04,-272.76,-272.76,-43,570,-938,25.2,10.8,-7.7,25.4,11.0,-7.2,5.73,2.39,-20.6,30.7
2013-05-12 00:07:00,0.0,1.9089,0.0009,406.72,0.46,413.6,33.2,138.04,31.37,24.66,36.44,0.04,-272.76,-272.76,-43,570,-939,25.2,10.8,-7.6,25.4,11.0,-7.2,5.73,2.40,-20.6,30.7
2013-05-12 00:08:00,0.0,1.9092,0.0009,406.86,0.37,410.2,38.2,138.03,31.37,24.66,36.44,0.04,-272.76,-272.76,-44,570,-939,25.2,10.9,-7.5,25.4,11.1,-7.1,5.73,2.29,-20.6,30.7
2013-05-12 00:09:00,0.0,1.9097,0.0008,406.89,0.45,412.6,35.1,138.04,31.37,24.66,36.44,0.04,-272.76,-272.76,-44,570,-939,25.2,10.8,-7.5,25.4,11.0,-7.2,5.73,2.40,-20.6,30.7
2013-05-12 00:10:00,0.0,1.9088,0.0010,406.96,0.42,408.7,37.5,138.04,31.38,24.67,36.44,0.04,-272.76,-272.76,-43,570,-938,25.2,10.9,-7.5,25.4,11.1,-7.1,5.73,2.39,-20.6,30.7
2013-05-12 00:11:00,0.0,1.9093,0.0010,406.93,0.34,410.5,38.7,138.03,31.38,24.66,36.43,0.04,-272.76,-272.76,-43,570,-938,25.2,11.0,-7.4,25.4,11.2,-7.0,5.73,2.30,-20.6,30.8
2013-05-12 00:12:00,0.0,1.9097,0.0010,406.90,0.44,409.5,28.9,138.04,31.38,24.66,36.44,0.04,-272.76,-272.76,-44,570,-939,25.2,11.0,-7.4,25.4,11.1,-7.0,5.73,2.41,-20.6,30.8
2013-05-12 00:13:00,0.0,1.9097,0.0011,406.91,0.46,410.8,36.5,138.03,31.39,24.66,36.44,0.04,-272.76,-272.76,-43,570,-939,25.2,11.0,-7.3,25.4,11.2,-6.9,5.73,2.37,-20.6,30.8
2013-05-12 00:14:00,0.0,1.9094,0.0008,406.91,0.49,421.8,30.2,138.04,31.39,24.66,36.44,0.04,-272.76,-272.76,-43,570,-939,25.2,11.0,-7.3,25.5,11.2,-6.9,5.73,2.31,-20.6,30.8
2013-05-12 00:15:00,0.0,1.9095,0.0010,406.96,0.45,407.2,32.8,138.04,31.39,24.66,36.44,0.04,-272.76,-272.76,-44,570,-938,25.2,10.9,-7.5,25.4,11.1,-7.0,5.73,2.43,-20.6,30.8
2013-05-12 00:16:00,0.0,1.9095,0.0008,406.99,0.38,409.6,31.9,138.03,31.39,24.66,36.43,0.04,-272.76,-272.76,-44,570,-939,25.2,10.9,-7.6,25.4,11.0,-7.1,5.73,2.34,-20.6,30.8
2013-05-12 00:17:00,0.0,1.9092,0.0010,407.01,0.40,422.8,31.2,138.04,31.40,24.67,36.43,0.04,-272.76,-272.76,-43,570,-939,25.2,10.8,-7.6,25.5,11.0,-7.2,5.73,2.32,-20.6,30.8
2013-05-12 00:18:00,0.0,1.9096,0.0011,406.91,0.44,421.9,35.8,138.03,31.40,24.66,36.43,0.04,-272.76,-272.76,-44,570,-939,25.2,10.8,-7.7,25.4,10.9,-7.2,5.73,2.43,-20.6,30.8
2013-05-12 00:19:00,0.0,1.9098,0.0010,406.97,0.45,424.3,37.7,138.03,31.40,24.66,36.43,0.04,-272.76,-272.76,-44,570,-938,25.2,10.7,-7.7,25.5,10.9,-7.3,5.73,2.32,-20.6,30.8
2013-05-12 00:20:00,0.0,1.9094,0.0010,406.98,0.40,421.3,30.1,138.03,31.40,24.66,36.43,0.04,-272.76,-272.76,-43,570,-938,25.2,10.7,-7.7,25.5,10.9,-7.3,5.73,2.34,-20.6,30.8
2013-05-12 00:21:00,0.0,1.9094,0.0011,406.97,0.45,422.5,35.1,138.03,31.40,24.66,36.44,0.04,-272.76,-272.77,-43,570,-939,25.2,10.7,-7.7,25.4,10.9,-7.3,5.73,2.43,-20.6,30.8
2013-05-12 00:22:00,0.0,1.9096,0.0010,406.89,0.43,420.9,31.5,138.03,31.41,24.66,36.45,0.04,-272.76,-272.76,-44,570,-939,25.2,10.8,-7.6,25.5,11.0,-7.2,5.73,2.31,-20.6,30.8
2013-05-12 00:23:00,0.0,1.9097,0.0009,406.99,0.48,419.4,28.2,138.03,31.41,24.66,36.44,0.04,-272.76,-272.76,-44,570,-939,25.2,10.9,-7.5,25.5,11.1,-7.1,5.73,2.36,-20.5,30.8
2013-05-12 00:24:00,0.0,1.9098,0.0009,406.94,0.44,421.2,30.3,138.03,31.41,24.66,36.44,0.04,-272.76,-272.76,-43,571,-938,25.2,11.0,-7.4,25.5,11.1,-7.0,5.73,2.42,-20.5,30.9
2013-05-12 00:25:00,0.0,1.9097,0.0008,406.92,0.41,421.1,29.6,138.03,31.42,24.66,36.44,0.04,-272.76,-272.76,-44,570,-939,25.2,11.0,-7.3,25.4,11.2,-6.9,5.73,2.29,-20.5,30.9
2013-05-12 00:26:00,0.0,1.9099,0.0010,407.01,0.42,421.5,31.0,138.03,31.42,24.66,36.44,0.04,-272.76,-272.76,-44,570,-939,25.2,11.1,-7.3,25.5,11.2,-6.9,5.73,2.39,-20.5,30.9
2013-05-12 00:27:00,0.0,1.9099,0.0009,406.89,0.42,424.1,36.9,138.03,31.43,24.66,36.44,0.04,-272.76,-272.76,-43,570,-939,25.2,11.0,-7.3,25.5,11.2,-6.9,5.73,2.40,-20.5,31.0
2013-05-12 00:28:00,0.0,1.9099,0.0008,406.96,0.39,431.9,28.6,138.03,31.43,24.66,36.44,0.04,-272.75,-272.76,-44,570,-939,25.2,11.1,-7.2,25.5,11.3,-6.9,5.73,2.30,-20.5,31.0
2013-05-12 00:29:00,0.0,1.9094,0.0008,407.09,0.49,428.2,30.5,138.03,31.43,24.66,36.44,0.04,-272.75,-272.76,-44,570,-938,25.2,11.0,-7.3,25.5,11.2,-6.9,5.73,2.41,-20.5,31.0
2013-05-12 00:30:00,0.0,1.9097,0.0009,406.98,0.39,424.1,29.1,138.03,31.43,24.66,36.44,0.04,-272.75,-272.77,-43,570,-939,25.2,10.9,-7.5,25.5,11.1,-7.1,5.73,2.36,-20.5,31.0
2013-05-12 00:31:00,0.0,1.9096,0.0010,407.01,0.45,438.4,33.8,138.03,31.43,24.66,36.44,0.04,-272.76,-272.76,-43,570,-939,25.2,10.9,-7.5,25.4,11.0,-7.1,5.73,2.31,-20.5,31.0
2013-05-12 00:32:00,0.0,1.9096,0.0007,406.93,0.48,422.8,33.4,138.03,31.44,24.66,36.44,0.04,-272.75,-272.75,-44,570,-939,25.2,10.9,-7.5,25.5,11.0,-7.1,5.73,2.43,-20.5,31.0
2013-05-12 00:33:00,0.0,1.9098,0.0009,406.91,0.45,428.7,27.0,138.03,31.44,24.66,36.44,0.04,-272.77,-272.76,-43,570,-939,25.2,10.9,-7.5,25.5,11.0,-7.1,5.73,2.33,-20.5,31.1
2013-05-12 00:34:00,0.0,1.9097,0.0010,406.90,0.50,430.3,29.3,138.03,31.45,24.66,36.44,0.04,-272.76,-272.76,-43,570,-938,25.2,11.0,-7.4,25.5,11.1,-7.0,5.73,2.32,-20.5,31.1
2013-05-12 00:35:00,0.0,1.9094,0.0009,407.04,0.47,428.8,33.0,138.03,31.45,24.66,36.44,0.04,-272.76,-272.76,-44,570,-939,25.2,11.0,-7.4,25.5,11.1,-7.0,5.73,2.43,-20.5,31.1
2013-05-12 00:36:00,0.0,1.9097,0.0009,406.88,0.41,434.1,34.1,138.03,31.45,24.66,36.44,0.04,-272.76,-272.76,-44,570,-939,25.2,11.0,-7.3,25.5,11.2,-6.9,5.73,2.31,-20.5,31.0
2013-05-12 00:37:00,0.0,1.9094,0.0010,406.97,0.33,431.6,27.6,138.03,31.46,24.66,36.44,0.04,-272.76,-272.76,-43,571,-939,25.2,10.9,-7.4,25.5,11.1,-7.0,5.73,2.34,-20.5,31.0
2013-05-12 00:38:00,0.0,1.9097,0.0009,407.02,0.42,433.5,30.3,138.03,31.46,24.66,36.43,0.04,-272.76,-272.76,-43,571,-939,25.2,10.8,-7.5,25.5,11.0,-7.1,5.73,2.42,-20.5,31.0
2013-05-12 00:39:00,0.0,1.9094,0.0011,406.91,0.47,436.3,29.7,138.03,31.46,24.67,36.44,0.04,-272.76,-272.76,-44,571,-938,25.2,10.9,-7.5,25.5,11.1,-7.1,5.73,2.30,-20.5,31.0
2013-05-12 00:40:00,1.0,1.8926,0.0121,389.50,12.19,422.1,36.2,138.03,31.47,24.66,36.45,0.04,-272.76,-272.76,-43,610,-939,25.2,11.0,-7.4,25.5,11.1,-6.9,5.73,2.38,-20.4,30.9
2013-05-12 00:41:00,1.0,1.8782,0.0009,375.56,0.42,412.1,31.5,138.03,31.47,24.66,36.45,0.04,-272.76,-272.76,-43,606,-939,25.2,11.0,-7.3,25.5,11.2,-6.9,5.73,2.41,-20.5,30.9
2013-05-12 00:42:00,1.0,1.8783,0.0009,375.48,0.34,413.2,30.2,138.03,31.48,24.66,36.45,0.04,-272.76,-272.76,-44,606,-939,25.3,11.0,-7.3,25.5,11.2,-6.9,5.73,2.29,-20.5,30.9
2013-05-12 00:43:00,1.0,1.8784,0.0009,375.49,0.40,421.4,33.9,138.03,31.48,24.66,36.45,0.04,-272.76,-272.76,-44,605,-939,25.3,11.0,-7.3,25.5,11.2,-6.9,5.73,2.39,-20.4,31.0
2013-05-12 00:44:00,1.0,1.8782,0.0008,375.53,0.46,421.5,31.7,138.03,31.48,24.66,36.45,0.04,-272.76,-272.76,-43,605,-939,25.3,11.0,-7.2,25.5,11.2,-6.8,5.73,2.38,-20.4,30.9
2013-05-12 00:45:00,0.0,1.8957,0.0122,392.94,12.23,430.7,33.8,138.03,31.49,24.66,36.44,0.04,-272.76,-272.75,-44,569,-940,25.3,11.1,-7.1,25.6,11.3,-6.7,5.73,2.33,-20.4,31.0
2013-05-12 00:46:00,0.0,1.9100,0.0009,406.93,0.40,442.5,32.3,138.03,31.50,24.66,36.43,0.04,-272.76,-272.76,-44,569,-939,25.3,11.1,-7.2,25.6,11.2,-6.8,5.73,2.41,-20.4,31.0
2013-05-12 00:47:00,0.0,1.9099,0.0009,407.05,0.43,439.9,35.1,138.03,31.50,24.66,36.43,0.04,-272.76,-272.76,-43,569,-939,25.4,10.9,-7.3,25.6,11.1,-6.9,5.73,2.37,-20.4,31.0
2013-05-12 00:48:00,0.0,1.9096,0.0007,407.05,0.39,439.1,29.9,138.03,31.50,24.66,36.43,0.04,-272.76,-272.75,-44,569,-939,25.4,10.9,-7.4,25.6,11.1,-7.0,5.73,2.31,-20.4,31.0
2013-05-12 00:49:00,0.0,1.9103,0.0010,406.92,0.40,442.2,32.8,138.03,31.51,24.66,36.43,0.04,-272.76,-272.76,-44,569,-939,25.4,11.0,-7.3,25.6,11.2,-6.8,5.73,2.42,-20.4,31.1
2013-05-12 00:50:00,0.0,1.9102,0.0009,407.04,0.37,441.7,31.1,138.03,31.51,24.66,36.43,0.04,-272.77,-272.76,-44,569,-939,25.4,11.0,-7.2,25.6,11.2,-6.8,5.73,2.35,-20.4,31.1
2013-05-12 00:51:00,0.0,1.9102,0.0009,407.03,0.40,433.1,33.4,138.03,31.51,24.66,36.43,0.04,-272.76,-272.75,-43,569,-939,25.3,11.1,-7.2,25.5,11.3,-6.8,5.73,2.31,-20.5,31.1
2013-05-12 00:52:00,0.0,1.9101,0.0009,406.79,0.38,433.8,30.8,138.03,31.52,24.66,36.44,0.04,-272.76,-272.76,-44,569,-939,25.3,11.1,-7.1,25.5,11.3,-6.7,5.73,2.42,-20.5,31.1
2013-05-12 00:53:00,0.0,1.9103,0.0010,407.01,0.43,432.7,34.8,138.03,31.52,24.66,36.43,0.04,-272.76,-272.75,-44,569,-939,25.3,11.2,-7.1,25.5,11.4,-6.7,5.73,2.37,-20.5,31.0
2013-05-12 00:54:00,0.0,1.9099,0.0011,406.98,0.38,428.6,29.0,138.03,31.52,24.66,36.44,0.04,-272.76,-272.76,-44,569,-939,25.2,11.1,-7.2,25.5,11.3,-6.7,5.73,2.30,-20.5,31.1
2013-05-12 00:55:00,0.0,1.9099,0.0010,407.01,0.43,428.9,36.1,138.03,31.53,24.66,36.44,0.04,-272.76,-272.76,-43,569,-939,25.2,11.1,-7.2,25.5,11.3,-6.8,5.73,2.42,-20.6,31.0
2013-05-12 00:56:00,0.0,1.9102,0.0009,407.03,0.41,431.3,27.9,138.03,31.53,24.66,36.43,0.04,-272.76,-272.77,-44,569,-939,25.2,11.1,-7.2,25.5,11.3,-6.8,5.73,2.37,-20.6,31.0
2013-05-12 00:57:00,0.0,1.9102,0.0007,406.98,0.46,429.8,29.0,138.03,31.54,24.66,36.43,0.04,-272.76,-272.76,-44,569,-939,25.2,11.2,-7.1,25.5,11.4,-6.7,5.73,2.30,-20.6,31.0
2013-05-12 00:58:00,0.0,1.9104,0.0010,406.93,0.44,419.1,29.5,138.03,31.54,24.66,36.44,0.04,-272.76,-272.76,-43,569,-939,25.2,11.2,-7.1,25.5,11.4,-6.7,5.73,2.40,-20.7,31.0
2013-05-12 00:59:00,0.0,1.9102,0.0010,407.09,0.41,419.5,31.6,138.03,31.54,24.66,36.42,0.04,-272.76,-272.76,-43,569,-939,25.1,11.2,-7.2,25.4,11.4,-6.8,5.73,2.39,-20.7,31.0
2013-05-12 01:00:00,0.0,1.9100,0.0010,407.08,0.40,414.4,32.5,138.03,31.54,24.66,36.43,0.04,-272.76,-272.76,-44,569,-939,25.1,11.2,-7.2,25.4,11.4,-6.8,5.73,2.30,-20.7,31.0
2013-05-12 01:01:00,0.0,1.9099,0.0009,406.93,0.41,416.9,34.3,138.03,31.55,24.67,36.43,0.04,-272.76,-272.76,-44,569,-939,25.1,11.3,-7.1,25.4,11.5,-6.7,5.73,2.39,-20.7,31.0
2013-05-12 01:02:00,0.0,1.9102,0.0009,406.96,0.42,408.3,33.0,138.03,31.55,24.66,36.43,0.04,-272.76,-272.76,-43,569,-938,25.1,11.3,-7.1,25.4,11.5,-6.7,5.73,2.40,-20.8,30.9
2013-05-12 01:03:00,0.0,1.9102,0.0010,406.94,0.49,402.6,30.0,138.03,31.55,24.66,36.43,0.04,-272.76,-272.77,-43,569,-939,25.1,11.3,-7.1,25.3,11.5,-6.7,5.73,2.30,-20.8,30.9
2013-05-12 01:04:00,0.0,1.9104,0.0010,407.06,0.40,402.7,24.3,138.03,31.56,24.66,36.43,0.04,-272.76,-272.76,-44,569,-939,25.0,11.4,-7.1,25.3,11.5,-6.6,5.73,2.38,-20.8,30.9
2013-05-12 01:05:00,0.0,1.9103,0.0008,407.06,0.37,391.6,35.1,138.03,31.56,24.66,36.42,0.04,-272.76,-272.76,-43,569,-939,25.0,11.4,-7.1,25.3,11.6,-6.6,5.73,2.41,-20.8,30.8
2013-05-12 01:06:00,0.0,1.9102,0.0009,407.05,0.50,397.0,35.2,138.03,31.56,24.66,36.43,0.04,-272.76,-272.76,-43,569,-938,25.0,11.4,-7.0,25.3,11.6,-6.6,5.73,2.30,-20.9,30.9
2013-05-12 01:07:00,0.0,1.9104,0.0009,407.01,0.37,391.6,27.5,138.03,31.57,24.66,36.43,0.04,-272.76,-272.76,-43,568,-938,24.9,11.4,-7.0,25.3,11.6,-6.6,5.73,2.37,-20.9,30.9
2013-05-12 01:08:00,0.0,1.9102,0.0008,407.03,0.46,400.0,25.5,138.03,31.57,24.67,36.43,0.04,-272.76,-272.76,-43,568,-939,24.9,11.5,-7.0,25.2,11.7,-6.6,5.73,2.41,-20.9,30.8
2013-05-12 01:09:00,0.0,1.9099,0.0009,407.02,0.38,400.2,28.6,138.03,31.57,24.66,36.42,0.04,-272.76,-272.76,-43,568,-939,24.9,11.5,-7.0,25.2,11.7,-6.6,5.73,2.31,-20.9,30.8
2013-05-12 01:10:00,0.0,1.9103,0.0009,407.02,0.40,388.6,34.2,138.03,31.58,24.66,36.43,0.04,-272.76,-272.76,-43,568,-939,24.8,11.6,-7.0,25.2,11.7,-6.5,5.73,2.36,-20.9,30.8
2013-05-12 01:11:00,0.0,1.9105,0.0009,407.02,0.41,393.5,31.8,138.03,31.58,24.66,36.43,0.04,-272.76,-272.76,-43,568,-938,24.8,11.6,-7.0,25.1,11.7,-6.6,5.73,2.42,-20.9,30.8
2013-05-12 01:12:00,0.0,1.9101,0.0010,407.08,0.42,386.6,25.7,138.03,31.58,24.67,36.43,0.04,-272.76,-272.76,-43,568,-938,24.8,11.5,-7.1,25.1,11.6,-6.7,5.73,2.31,-21.0,30.8
2013-05-12 01:13:00,0.0,1.9100,0.0008,406.90,0.39,390.5,31.2,138.03,31.58,24.66,36.43,0.04,-272.76,-272.76,-43,568,-938,24.8,11.5,-7.1,25.1,11.6,-6.7,5.73,2.36,-21.0,30.7
2013-05-12 01:14:00,0.0,1.9103,0.0009,406.94,0.39,387.6,29.4,138.03,31.58,24.66,36.43,0.04,-272.76,-272.76,-43,568,-938,24.8,11.5,-7.1,25.1,11.6,-6.7,5.73,2.42,-21.0,30.7
2013-05-12 01:15:00,0.0,1.9100,0.0009,406.95,0.42,398.2,30.5,138.03,31.58,24.66,36.44,0.04,-272.75,-272.76,-43,568,-938,24.8,11.5,-7.1,25.1,11.6,-6.7,5.73,2.30,-21.0,30.7
2013-05-12 01:16:00,0.0,1.9104,0.0008,406.98,0.39,399.4,30.2,138.03,31.59,24.66,36.43,0.04,-272.76,-272.76,-43,567,-938,24.8,11.5,-7.1,25.1,11.7,-6.7,5.73,2.35,-21.0,30.7
2013-05-12 01:17:00,0.0,1.9101,0.0011,407.13,0.38,397.2,36.5,138.03,31.59,24.66,36.42,0.04,-272.76,-272.76,-43,567,-938,24.8,11.6,-7.0,25.1,11.7,-6.6,5.73,2.42,-21.0,30.7
2013-05-12 01:18:00,0.0,1.9102,0.0010,406.97,0.34,389.1,28.8,138.03,31.59,24.66,36.43,0.04,-272.75,-272.76,-43,567,-938,24.7,11.7,-7.0,25.1,11.8,-6.5,5.73,2.31,-21.0,30.7
2013-05-12 01:19:00,0.0,1.9100,0.0009,406.99,0.41,394.8,31.2,138.03,31.59,24.67,36.43,0.04,-272.76,-272.76,-43,567,-938,24.7,11.7,-7.0,25.0,11.8,-6.5,5.73,2.36,-21.0,30.7
2013-05-12 01:20:00,0.0,1.9102,0.0011,407.04,0.45,390.3,28.8,138.03,31.60,24.66,36.42,0.04,-272.76,-272.76,-43,567,-938,24.7,11.6,-7.0,25.0,11.8,-6.6,5.73,2.42,-21.0,30.7
2013-05-12 01:21:00,0.0,1.9105,0.0007,406.96,0.41,390.0,32.0,138.03,31.60,24.66,36.44,0.04,-272.76,-272.76,-43,567,-938,24.7,11.7,-7.0,25.0,11.9,-6.5,5.73,2.31,-21.0,30.7
2013-05-12 01:22:00,0.0,1.9100,0.0011,406.94,0.44,396.4,29.4,138.03,31.61,24.66,36.43,0.04,-272.75,-272.76,-43,567,-938,24.6,11.9,-6.8,25.0,12.0,-6.4,5.73,2.35,-21.0,30.6
2013-05-12 01:23:00,0.0,1.9102,0.0009,406.96,0.38,388.9,33.2,138.03,31.61,24.66,36.43,0.04,-272.76,-272.76,-43,567,-938,24.6,11.9,-6.8,25.0,12.0,-6.4,5.73,2.43,-21.0,30.6
2013-05-12 01:24:00,0.0,1.9100,0.0009,407.11,0.38,393.3,32.3,138.03,31.61,24.67,36.43,0.04,-272.76,-272.76,-43,567,-938,24.6,12.0,-6.8,24.9,12.1,-6.3,5.73,2.31,-21.0,30.6
2013-05-12 01:25:00,0.0,1.9101,0.0009,407.11,0.41,391.9,29.5,138.03,31.61,24.66,36.42,0.04,-272.76,-272.76,-43,567,-938,24.6,12.0,-6.8,24.9,12.1,-6.3,5.73,2.34,-21.1,30.6
2013-05-12 01:26:00,0.0,1.9107,0.0010,407.07,0.35,386.4,36.9,138.03,31.61,24.66,36.42,0.04,-272.76,-272.76,-43,566,-938,24.6,11.9,-6.8,24.9,12.1,-6.4,5.73,2.43,-21.1,30.6
2013-05-12 01:27:00,0.0,1.9105,0.0009,407.13,0.40,387.7,26.9,138.03,31.62,24.66,36.42,0.04,-272.76,-272.76,-43,566,-938,24.6,11.9,-6.8,24.9,12.1,-6.4,5.73,2.32,-21.1,30.6
2013-05-12 01:28:00,0.0,1.9102,0.0008,407.07,0.42,388.1,34.4,138.03,31.62,24.66,36.42,0.04,-272.76,-272.76,-43,566,-939,24.5,12.0,-6.8,24.9,12.1,-6.3,5.73,2.34,-21.1,30.6
2013-05-12 01:29:00,0.0,1.9100,0.0010,407.25,0.39,384.1,32.5,138.03,31.63,24.67,36.42,0.04,-272.76,-272.76,-43,566,-939,24.5,12.0,-6.7,24.8,12.2,-6.3,5.73,2.43,-21.1,30.6
2013-05-12 01:30:00,0.0,1.9102,0.0009,407.10,0.39,390.7,28.9,138.03,31.63,24.66,36.43,0.04,-272.76,-272.76,-43,566,-939,24.5,12.0,-6.8,24.9,12.1,-6.3,5.73,2.32,-21.1,30.6
2013-05-12 01:31:00,0.0,1.9106,0.0007,407.17,0.40,381.3,33.9,138.03,31.63,24.66,36.42,0.04,-272.76,-272.76,-43,566,-939,24.5,12.1,-6.7,24.8,12.2,-6.3,5.73,2.35,-21.1,30.6
2013-05-12 01:32:00,0.0,1.9103,0.0010,406.98,0.42,393.5,27.3,138.03,31.64,24.66,36.43,0.04,-272.76,-272.76,-43,566,-939,24.4,12.0,-6.8,24.8,12.2,-6.3,5.73,2.42,-21.1,30.6
2013-05-12 01:33:00,0.0,1.9105,0.0009,407.07,0.42,383.8,30.1,138.03,31.64,24.66,36.43,0.04,-272.76,-272.76,-43,566,-939,24.4,12.1,-6.7,24.8,12.3,-6.3,5.73,2.32,-21.1,30.5
2013-05-12 01:34:00,0.0,1.9106,0.0010,407.13,0.43,389.5,30.4,138.03,31.65,24.66,36.42,0.04,-272.76,-272.76,-43,566,-938,24.4,12.2,-6.6,24.8,12.3,-6.2,5.73,2.34,-21.1,30.5
2013-05-12 01:35:00,0.0,1.9105,0.0011,406.99,0.43,385.0,32.5,138.03,31.65,24.66,36.43,0.04,-272.76,-272.76,-42,566,-938,24.4,12.1,-6.7,24.7,12.3,-6.3,5.73,2.43,-21.1,30.5
2013-05-12 01:36:00,0.0,1.9109,0.0009,407.03,0.39,386.9,27.8,138.03,31.65,24.66,36.43,0.04,-272.76,-272.76,-43,566,-938,24.4,12.2,-6.6,24.7,12.4,-6.2,5.73,2.31,-21.1,30.5
2013-05-12 01:37:00,0.0,1.9105,0.0009,407.14,0.44,389.6,39.0,138.03,31.65,24.66,36.43,0.04,-272.77,-272.76,-43,566,-938,24.4,12.2,-6.7,24.7,12.3,-6.2,5.73,2.35,-21.1,30.5
2013-05-12 01:38:00,0.0,1.9105,0.0012,407.06,0.46,387.9,26.2,138.03,31.66,24.66,36.43,0.04,-272.76,-272.76,-42,566,-938,24.4,12.2,-6.7,24.7,12.3,-6.2,5.73,2.42,-21.1,30.5
2013-05-12 01:39:00,0.0,1.9106,0.0008,407.16,0.39,385.6,26.3,138.03,31.66,24.66,36.43,0.04,-272.76,-272.76,-42,565,-938,24.4,12.2,-6.6,24.7,12.4,-6.2,5.73,2.32,-21.1,30.5
2013-05-12 01:40:00,0.0,1.9106,0.0009,407.08,0.44,390.2,32.6,138.03,31.66,24.66,36.43,0.04,-272.76,-272.76,-43,565,-938,24.3,12.1,-6.8,24.7,12.3,-6.3,5.73,2.34,-21.1,30.5
2013-05-12 01:41:00,0.0,1.9107,0.0009,407.03,0.39,381.8,30.8,138.03,31.67,24.66,36.42,0.04,-272.76,-272.76,-43,565,-939,24.3,12.2,-6.8,24.7,12.3,-6.3,5.73,2.43,-21.1,30.4
2013-05-12 01:42:00,0.0,1.9107,0.0010,407.11,0.52,377.3,29.6,138.03,31.67,24.66,36.42,0.04,-272.76,-272.76,-42,565,-938,24.3,12.3,-6.7,24.7,12.4,-6.2,5.73,2.32,-21.1,30.4
2013-05-12 01:43:00,0.0,1.9109,0.0008,407.18,0.35,387.8,30.1,138.03,31.67,24.66,36.42,0.04,-272.76,-272.76,-42,565,-938,24.3,12.3,-6.6,24.6,12.5,-6.1,5.73,2.35,-21.2,30.4
2013-05-12 01:44:00,0.0,1.9110,0.0009,407.06,0.41,389.9,30.4,138.03,31.67,24.66,36.43,0.04,-272.76,-272.76,-43,565,-938,24.3,12.4,-6.5,24.6,12.6,-6.1,5.73,2.42,-21.2,30.4
2013-05-12 01:45:00,0.0,1.9104,0.0007,407.17,0.49,386.8,36.9,138.03,31.68,24.66,36.42,0.04,-272.76,-272.76,-43,565,-938,24.3,12.4,-6.5,24.6,12.5,-6.1,5.73,2.32,-21.2,30.4
2013-05-12 01:46:00,0.0,1.9107,0.0009,407.12,0.37,388.9,32.2,138.03,31.68,24.66,36.42,0.04,-272.76,-272.76,-42,565,-938,24.3,12.4,-6.5,24.6,12.6,-6.1,5.73,2.34,-21.1,30.4
2013-05-12 01:47:00,0.0,1.9106,0.0009,407.21,0.41,388.4,36.1,138.03,31.68,24.66,36.42,0.04,-272.76,-272.76,-42,565,-938,24.2,12.4,-6.5,24.6,12.6,-6.1,5.73,2.43,-21.1,30.4
2013-05-12 01:48:00,0.0,1.9108,0.0008,407.13,0.39,392.9,34.2,138.03,31.69,24.66,36.42,0.04,-272.76,-272.76,-43,565,-939,24.2,12.4,-6.5,24.6,12.6,-6.1,5.73,2.32,-21.1,30.4
2013-05-12 01:49:00,0.0,1.9103,0.0009,407.03,0.44,386.6,31.8,138.03,31.70,24.67,36.43,0.04,-272.76,-272.76,-42,565,-938,24.2,12.4,-6.5,24.6,12.5,-6.1,5.73,2.34,-21.2,30.4
2013-05-12 01:50:00,0.0,1.9111,0.0010,407.10,0.40,388.2,29.1,138.03,31.70,24.66,36.43,0.04,-272.76,-272.76,-42,565,-938,24.2,12.5,-6.5,24.6,12.5,-6.2,5.73,2.43,-21.2,30.4
2013-05-12 01:51:00,0.0,1.9102,0.0011,407.13,0.45,390.3,34.2,138.03,31.70,24.66,36.42,0.04,-272.76,-272.76,-42,564,-938,24.2,12.6,-6.4,24.5,12.6,-6.1,5.73,2.32,-21.2,30.4
2013-05-12 01:52:00,0.0,1.9103,0.0008,407.06,0.34,390.7,27.8,138.03,31.70,24.67,36.43,0.04,-272.76,-272.76,-42,564,-938,24.2,12.6,-6.4,24.5,12.7,-6.1,5.73,2.34,-21.2,30.3
2013-05-12 01:53:00,0.0,1.9104,0.0011,407.05,0.43,386.9,32.1,138.03,31.71,24.67,36.43,0.04,-272.76,-272.76,-42,564,-938,24.2,12.6,-6.4,24.5,12.7,-6.1,5.73,2.43,-21.2,30.3
2013-05-12 01:54:00,0.0,1.9105,0.0010,407.07,0.46,390.8,33.7,138.03,31.71,24.66,36.42,0.04,-272.76,-272.76,-42,564,-939,24.2,12.6,-6.4,24.5,12.7,-6.0,5.73,2.31,-21.2,30.3
2013-05-12 01:55:00,0.0,1.9103,0.0009,406.94,0.41,386.1,31.2,138.03,31.71,24.66,36.43,0.04,-272.76,-272.76,-42,564,-938,24.1,12.6,-6.5,24.5,12.6,-6.1,5.73,2.35,-21.2,30.3
2013-05-12 01:56:00,0.0,1.9110,0.0009,406.98,0.43,383.4,34.7,138.03,31.71,24.66,36.43,0.04,-272.76,-272.76,-42,564,-938,24.1,12.5,-6.5,24.5,12.6,-6.1,5.73,2.43,-21.2,30.3
2013-05-12 01:57:00,0.0,1.9109,0.0009,407.15,0.46,382.8,31.1,138.03,31.72,24.66,36.42,0.04,-272.76,-272.76,-42,564,-938,24.1,12.6,-6.5,24.5,12.7,-6.1,5.73,2.32,-21.2,30.2
2013-05-12 01:58:00,0.0,1.9107,0.0009,407.16,0.39,396.9,29.0,138.03,31.72,24.66,36.42,0.04,-272.76,-272.77,-42,564,-938,24.1,12.7,-6.4,24.5,12.7,-6.0,5.73,2.34,-21.2,30.2
2013-05-12 01:59:00,0.0,1.9108,0.0012,407.12,0.37,387.0,28.7,138.03,31.73,24.66,36.42,0.04,-272.76,-272.76,-43,564,-938,24.1,12.6,-6.4,24.5,12.7,-6.1,5.73,2.43,-21.2,30.3
2013-05-12 02:00:00,0.0,1.9108,0.0008,406.97,0.38,389.9,31.7,138.03,31.73,24.66,36.43,0.04,-272.76,-272.76,-42,564,-938,24.1,12.6,-6.4,24.4,12.7,-6.1,5.73,2.33,-21.2,30.3
2013-05-12 02:01:00,0.0,1.9105,0.0010,407.10,0.42,402.7,32.4,138.03,31.74,24.67,36.43,0.04,-272.76,-272.76,-42,564,-938,24.1,12.6,-6.4,24.4,12.7,-6.1,5.73,2.34,-21.2,30.3
2013-05-12 02:02:00,0.0,1.9108,0.0010,407.13,0.40,387.6,32.9,138.03,31.74,24.66,36.43,0.04,-272.76,-272.76,-42,564,-938,24.1,12.7,-6.4,24.4,12.8,-6.0,5.73,2.43,-21.2,30.3
2013-05-12 02:03:00,0.0,1.9108,0.0010,407.15,0.43,390.2,32.7,138.03,31.75,24.66,36.42,0.04,-272.76,-272.76,-42,564,-937,24.1,12.5,-6.6,24.4,12.6,-6.2,5.73,2.33,-21.2,30.2
2013-05-12 02:04:00,0.0,1.9111,0.0008,407.15,0.40,387.7,32.1,138.03,31.75,24.66,36.43,0.04,-272.76,-272.76,-42,564,-938,24.1,12.4,-6.7,24.4,12.4,-6.4,5.73,2.33,-21.2,30.2
2013-05-12 02:05:00,0.0,1.9107,0.0009,407.17,0.44,392.0,33.9,138.03,31.75,24.66,36.42,0.04,-272.76,-272.76,-42,564,-938,24.1,12.4,-6.7,24.4,12.4,-6.4,5.73,2.43,-21.2,30.2
2013-05-12 02:06:00,0.0,1.9106,0.0009,407.12,0.45,388.8,30.7,138.03,31.75,24.67,36.42,0.04,-272.76,-272.76,-42,564,-939,24.1,12.5,-6.6,24.4,12.5,-6.3,5.73,2.35,-21.2,30.2
2013-05-12 02:07:00,0.0,1.9106,0.0009,407.01,0.43,387.6,28.0,138.03,31.76,24.66,36.43,0.04,-272.76,-272.76,-42,564,-938,24.1,12.5,-6.6,24.4,12.6,-6.2,5.73,2.31,-21.3,30.1
2013-05-12 02:08:00,0.0,1.9108,0.0010,407.10,0.40,383.8,33.0,138.03,31.76,24.66,36.42,0.04,-272.76,-272.76,-42,564,-938,24.1,12.5,-6.5,24.4,12.6,-6.2,5.73,2.42,-21.2,30.1
2013-05-12 02:09:00,0.0,1.9105,0.0011,407.16,0.44,391.4,34.6,138.03,31.76,24.67,36.43,0.04,-272.76,-272.76,-42,564,-937,24.1,12.6,-6.5,24.4,12.6,-6.2,5.73,2.37,-21.2,30.1
2013-05-12 02:10:00,0.0,1.9107,0.0009,407.04,0.40,378.6,30.8,138.03,31.76,24.66,36.43,0.04,-272.76,-272.76,-42,563,-938,24.1,12.5,-6.6,24.4,12.6,-6.2,5.73,2.30,-21.3,30.0
2013-05-12 02:11:00,0.0,1.9108,0.0008,407.14,0.45,388.2,30.6,138.03,31.76,24.66,36.43,0.04,-272.76,-272.76,-42,563,-938,24.1,12.3,-6.7,24.4,12.5,-6.4,5.73,2.39,-21.3,30.0
2013-05-12 02:12:00,0.0,1.9108,0.0008,407.18,0.37,384.3,26.7,138.03,31.77,24.66,36.42,0.04,-272.76,-272.76,-42,564,-938,24.1,12.3,-6.7,24.3,12.4,-6.4,5.73,2.41,-21.3,30.0
2013-05-12 02:13:00,0.0,1.9107,0.0011,407.09,0.40,380.0,29.8,138.03,31.77,24.67,36.43,0.04,-272.76,-272.76,-42,564,-938,24.1,12.5,-6.6,24.3,12.6,-6.3,5.73,2.31,-21.3,30.1
2013-05-12 02:14:00,0.0,1.9108,0.0009,407.16,0.40,389.2,33.7,138.03,31.78,24.66,36.42,0.04,-272.76,-272.76,-42,563,-938,24.1,12.5,-6.6,24.3,12.6,-6.3,5.73,2.35,-21.3,30.0
2013-05-12 02:15:00,0.0,1.9110,0.0009,407.13,0.44,380.8,33.8,138.03,31.78,24.66,36.42,0.04,-272.76,-272.76,-42,563,-937,24.1,12.5,-6.6,24.3,12.6,-6.2,5.73,2.43,-21.3,30.0
2013-05-12 02:16:00,0.0,1.9106,0.0009,407.17,0.40,377.1,32.1,138.03,31.78,24.67,36.42,0.04,-272.76,-272.76,-42,563,-938,24.0,12.5,-6.6,24.3,12.6,-6.3,5.73,2.34,-21.3,30.1